Flag for Switzerland Weather past 2 weeks in Liestal, Basel-Land, Switzerland

Now
63 °F

Clear.


Feels Like: 63 °F
Forecast: 57 / 69 °F
Wind: 5 mph from Southwest

Location: Bale-Mulhouse

Current Time: Sep 20, 2014 at 10:05:38 PM

Latest Report: Sep 20, 2014 at 9:30 PM


Visibility: 10 mi

Pressure: 30.04 "Hg

Humidity: 88%

Dew point: 59 °F

Location of LiestalLocation

Historic Weather in Liestal — Graph

°F

Liestal temperature yesterday

Maximum temperature yesterday: 75 °F (at 2:30 PM)
Minimum temperature yesterday: 57 °F (at 6:00 AM)
Average temperature yesterday: 65 °F

Past Weeks' High & Low Weather Summary

 TemperatureHumidityPressure
High81 °F (Sep 6, 3:30 PM)100% (Sep 5, 11:30 PM)30.15 "Hg (Sep 5, 11:30 PM)
Low48 °F (Sep 11, 5:30 AM)48% (Sep 6, 3:30 PM)29.83 "Hg (Sep 17, 4:30 PM)
Average63 °F83%29.99 "Hg
* Reported Sep 5 9:00 PM — Sep 20 9:00 PM, Liestal, Weather by CustomWeather, © 2014

Note: Actual official high and low records may vary slightly from our data, if they occured in-between our weather recording intervals... More about our weather records

Advertising

Liestal weather history for previous 24 hours

 ConditionsComfort  
Time TempWeatherWind HumidityBarometerVisibility
9:00 PM
Sep 20
64 °FPassing clouds.3 mph83%30.04 "HgN/A
8:30 PM66 °FPassing clouds.2 mph78%30.04 "HgN/A
8:00 PM66 °FPassing clouds.6 mph83%30.01 "HgN/A
7:30 PM68 °FPassing clouds.3 mph73%30.01 "HgN/A
3:30 PM77 °FScattered clouds.8 mph61%30.01 "HgN/A
3:00 PM77 °FScattered clouds.9 mph61%30.01 "HgN/A
2:30 PM75 °FScattered clouds.6 mph65%30.01 "HgN/A
2:00 PM75 °FBroken clouds.9 mph65%30.01 "HgN/A
1:30 PM75 °FBroken clouds.6 mph65%30.01 "HgN/A
1:00 PM73 °FBroken clouds.9 mph69%30.04 "HgN/A
12:30 PM73 °FPartly sunny.6 mph65%30.04 "HgN/A
12:00 PM73 °FScattered clouds.3 mph69%30.04 "HgN/A
11:30 AM70 °FScattered clouds.3 mph78%30.04 "HgN/A
11:00 AM70 °FScattered clouds.3 mph78%30.04 "HgN/A
10:30 AM68 °FScattered clouds.5 mph83%30.04 "HgN/A
10:00 AM64 °FScattered clouds.3 mph94%30.01 "HgN/A
9:30 AM61 °FScattered clouds.5 mph100%30.01 "HgN/A
9:00 AM61 °FPartly sunny.2 mph94%30.01 "HgN/A
8:30 AM59 °FFog.1 mph100%30.01 "HgN/A
8:00 AM61 °FFog.3 mph94%30.01 "HgN/A
7:30 AM59 °FFog.2 mph100%30.01 "HgN/A
7:00 AM59 °FFog.3 mph94%29.98 "Hg4 mi
6:30 AM61 °FPassing clouds.2 mph94%29.98 "HgN/A
6:00 AM61 °FPassing clouds.7 mph100%29.98 "HgN/A
5:30 AM61 °FPassing clouds.3 mph100%29.98 "HgN/A
5:00 AM61 °FPartly cloudy.2 mph100%29.98 "HgN/A
4:30 AM63 °FPassing clouds.3 mph94%30.01 "HgN/A
4:00 AM63 °FPassing clouds.3 mph100%30.01 "HgN/A
3:00 AM63 °FHeavy rain. Fog.5 mph94%30.01 "Hg2 mi
2:30 AM63 °FRain. Mostly cloudy.6 mph94%30.01 "Hg4 mi
2:00 AM63 °FHeavy rain. Passing clouds.6 mph100%30.04 "Hg2 mi
1:30 AM63 °FLight rain. Mostly cloudy.3 mph100%30.01 "HgN/A
1:00 AM63 °FPassing clouds.6 mph100%30.01 "HgN/A
12:30 AM63 °FLight rain. Partly cloudy.2 mph100%29.98 "HgN/A
12:00 AM63 °FSprinkles. Passing clouds.3 mph94%30.01 "HgN/A
11:30 PM
Sep 19
64 °FClear.No wind88%30.01 "Hg10 mi
11:00 PM63 °FPassing clouds.6 mph94%30.01 "HgN/A
10:30 PM63 °FClear.5 mph94%29.98 "Hg10 mi
10:00 PM63 °FClear.2 mph94%29.98 "Hg10 mi
Weather by CustomWeather, © 2014

See weather overviewHow to use our weather pages